This is the latest recevied weather packets stored in our database for station/object W9PEM-13. If no packets are shown the sender has not sent any weather packets the latest 10 day(s).
| Time | Temp. | Humidity | Pressure | Rain* | Wind** | Luminosity | Snow |
|---|---|---|---|---|---|---|---|
| 1777537214 | 2.22° C | 99% | 985.7 hPa | 0 mm | - | 0 W/m² | - |
| 1777536614 | 1.67° C | 99% | 985.6 hPa | 0 mm | - | 0 W/m² | - |
| 1777536014 | 2.22° C | 99% | 985.6 hPa | 0 mm | - | 0 W/m² | - |
| 1777535414 | 2.22° C | 99% | 985.7 hPa | 0 mm | - | 0 W/m² | - |
| 1777534814 | 2.22° C | 99% | 985.7 hPa | 0 mm | - | 0 W/m² | - |
| 1777534214 | 2.78° C | 99% | 985.6 hPa | 0 mm | - | 0 W/m² | - |
| 1777533614 | 2.22° C | 99% | 985.7 hPa | 0 mm | - | 0 W/m² | - |
| 1777533014 | 2.22° C | 99% | 985.8 hPa | 0 mm | - | 0 W/m² | - |
| 1777532414 | 1.67° C | 99% | 985.8 hPa | 0 mm | - | 0 W/m² | - |
| 1777531814 | 1.67° C | 99% | 985.8 hPa | 0 mm | - | 0 W/m² | - |
| 1777531214 | 2.22° C | 99% | 985.9 hPa | 0 mm | - | 0 W/m² | - |
| 1777530614 | 2.22° C | 99% | 985.9 hPa | 0 mm | - | 0 W/m² | - |
| 1777530014 | 2.78° C | 99% | 986 hPa | 0 mm | - | 0 W/m² | - |
| 1777529414 | 3.33° C | 99% | 986.1 hPa | 0 mm | - | 0 W/m² | - |
| 1777528813 | 3.33° C | 99% | 986 hPa | 0 mm | - | 0 W/m² | - |
| 1777528214 | 3.33° C | 99% | 986.2 hPa | 0 mm | - | 0 W/m² | - |
| 1777527615 | 3.33° C | 99% | 986.3 hPa | 0 mm | - | 0 W/m² | - |
| 1777527014 | 3.89° C | 99% | 986.3 hPa | 0 mm | - | 0 W/m² | - |
| 1777526414 | 3.33° C | 99% | 986.3 hPa | 0 mm | - | 0 W/m² | - |
| 1777525815 | 3.33° C | 99% | 986.4 hPa | 0 mm | - | 0 W/m² | - |
| 1777525214 | 3.33° C | 99% | 986.1 hPa | 0 mm | - | 0 W/m² | - |
| 1777524613 | 3.33° C | 99% | 985.9 hPa | 0 mm | - | 0 W/m² | - |
| 1777524014 | 3.33° C | 99% | 985.9 hPa | 0 mm | - | 0 W/m² | - |
| 1777523415 | 3.33° C | 99% | 985.7 hPa | 0 mm | - | 0 W/m² | - |
| 1777522814 | 3.89° C | 99% | 985.7 hPa | 0 mm | - | 0 W/m² | - |
* Rain latest hour (hover to see other rain measurements)
** Current wind speed in m/s (hover to see current wind gust speed)